Погода Актобе

Погода Актобе : погода сейчас, прогноз погоды и архив. Всё, что Вы хотите узнать о погоде Актобе!

Хотите узнать прогноз погоды Актобе? Тогда Вам сюда: Погода Актобе

Поиск расширенной информации на нашем сайте:

Другие новости

Новости СМИ2

Главная страница сайта

Новости сайта

03.07.2017

Напоминаем, что на нашем специализированном сайте Метеоцентр.Азия вы можете получить высокодетализированные автоматические прогнозы погоды по пунктам России, СНГ и мира в авиационном формате (включающие направление и скорость ветра, видимость, явления погоды, количество и форму облачности, нижнюю и верхнюю границу облачности).

Рекомендуем: Самая актуальная информация мелекино тут.

Погода Актобе - сегодня

Время (UTC), дата Ветер
(°,м/с) 
Видим.   Явления Облачность Т
(°С)
Тd
(°С)
f(%) Тe
(°С)
Pmin
(гПа)
dP
(гПа)
Po
(мм)
O2
(г/м3)
Тmin Tmax R s Состояние
почвы
00 17.08.17 тихо ()   н/о    ясно 
+12.9 +8.5 75 +13  1022.8  0.3  747  286           
03 17.08.17 тихо ()   20000 м    10/0 верхняя 
[Ci fib]
+15.1 +9.7 70 +16  1023.4  0.8  748  284           
06 17.08.17 040 (СВ) 20000 м    10/0 верхняя 
[Cs]
+25.5 +11.7 42 +29  1022.2  -0.3  748  273  +12.8         
09 17.08.17 360 (С) 20000 м    10/6 1000 м верхняя 
[Cu med, cong|Cs]
+29.1 +10.3 31 +31  1021.1  -0.5  747  270           
12 17.08.17 350 (С) 20000 м    10/6 1500 м верхняя 
[Cu med, cong|Cs]
+30.7 +4.3 19 +31  1020.3  -0.9  747  270           
15 17.08.17 360 (С) 20000 м    10/4 600 м кучево-дожд., средняя, верхняя 
[Cb calv|Ac trans|Ci]
+27.9 +8.9 30 +28  1020.4  -0.1  747  271    +32       
18 17.08.17 060 (СВ) н/о    10/0 верхняя 
[Ci]
+22.8 +11.4 49 +26  1021.4  0.6  747  276    +32       
21 17.08.17 тихо ()   н/о    3/0 верхняя 
[Ci fib]
+18.2 +13.4 74 +24  1021.6  -0.2  747  279           
00 18.08.17 тихо ()   н/о    3/0 верхняя 
[Ci fib]
+14.1 +11.1 82 +17  1022.1  0.1  747  284           
03 18.08.17 040 (СВ) 20000 м    1/0 верхняя 
[Ci fib]
+16.2 +12.4 78 +23  1022.5  0.6  747  282           
06 18.08.17 100 (В) 20000 м    ясно 
+26.9 +13.5 44 +33  1021.5  -0.2  747  271  +13         
09 18.08.17 110 (В) 20000 м    4/4 600 м кучево-дожд. 
[Cb calv]
+30.7 +11.8 31 +34  1020.4  -0.8  747  268           
12 18.08.17 120 (ЮВ) 20000 м    8/5 600 м кучево-дожд., средняя 
[Cb calv|Ac trans]
+31.2 +11.7 30 +35  1019.7  -0.7  746  268           
15 18.08.17 130 (ЮВ) 20000 м    6/0 средняя, верхняя 
[Ac trans|Ci fib]
+27.5 +13.1 41 +33  1020.3  0.2  746  271    +32       
18 18.08.17 110 (В) н/о    6/0 верхняя 
[Ci fib]
+21.9 +11.8 53 +26  1022  1.4  747  277    +32       
21 18.08.17 110 (В) н/о    6/0 средняя, верхняя 
[Ac trans|Ci fib]
+20.1 +7.1 43 +20  1023.2  0.8  748  280           
00 19.08.17 120 (ЮВ) н/о    8/0 средняя, верхняя 
[Ac trans|Ci fib]
+18.2 +8.8 54 +19  1023.6  0.3  748  281           
03 19.08.17 120 (ЮВ) 20000 м    8/4 600 м кучево-дожд., средняя 
[Cb calv|Ac trans]
+19.7 +9.3 51 +21  1024.7  1.2  749  280           
06 19.08.17 150 (ЮВ) 20000 м    8/3 600 м кучево-дожд., средняя 
[Cb calv|Ac As]
+26.3 +10.4 37 +28  1024.4  0.3  749  274  +18         
09 19.08.17 110 (В) 20000 м    8/3 600 м кучево-дожд., средняя 
[Cb calv|Ac As]
+29.2 +9 28 +29  1023.5  -0.6  749  271           
12 19.08.17 180 (Ю) 20000 м    6/0 средняя 
[Ac As]
+30.9 +8.6 25 +31  1022.9  -0.6  749  270           
15 19.08.17 110 (В) 20000 м    6/0 средняя 
[Ac As]
+28.7 +12.5 37 +33  1022.6  -0.3  748  270    +31.6       
18 19.08.17 150 (ЮВ) н/о    3/0 верхняя 
[Ci fib]
+20.1 +9.2 49 +20  1024  0.5  749  279    +31.6       
21 19.08.17 180 (Ю) н/о    3/0 верхняя 
[Ci fib]
+16.2 +8.6 61 +18  1024.5  0.1  749  283           
00 20.08.17 150 (ЮВ) н/о    6/0 средняя 
[Ac As]
+15.4 +7.1 58 +17  1024.8  0.2  749  284           
Время (UTC), дата Ветер
(°,м/с) 
Видим.   Явления Облачность Т
(°С)
Тd
(°С)
f(%) Тe
(°С)
Pmin
(гПа)
dP
(гПа)
Po
(мм)
O2
(г/м3)
Тmin Tmax R s Состояние
почвы

Для получения пояснительной информации подведите курсор к названию столбца.

ПОГОДА Актобе - архив

Всё, что Вы хотите узнать о погоде Актобе - удобно и подробно!

Выберите нужную дату (начиная с 1 января 2015* года) и нажмите кнопку "Найти".
Будут отображены архивные сводки погоды по пункту Актобе, начиная с указанной даты.


Отображать данные в формате CSV (для использования в таблицах Excel)


Внимание! Наш архив погоды предназначен исключительно для личного некоммерческого использования в познавательных целях. Если Вам необходимы официальные справки о состоянии погоды (для производственных, юридических, коммерческих и т.п. целей), обращайтесь в органы Росгидромета.

*Примечание: данная дата относится к архиву по метеостанциям СССР (Россия, СНГ, Балтия).
Архив по метеостанциям Зарубежной Европы и Азии (кроме Китая) хранится 10 дней, по другим регионам земного шара (Китай, Африка, Америка, Австралия, Океания) - 1 день.

Актобе - район местоположения метеостанции


Название, широта, долгота, высота метеостанции:
Актобе (город) 50.3°ш. 57.2°д. 219 м над ур. моря [Казахстан]

Дополнительная информация

В oтличие oт бoльшинства пoгoдных сайтoв мы публикуем пoдрoбную метеoинфoрмацию в детальнoм прoфессиoнальнoм фoрмате.

Характеристики температуры и влажнoсти вoздуха измеряются на высoте 2 м в тени вдали oт зданий и деревьев.
Скoрoсть ветра измеряется на высoте 10 м (на урoвне рoста челoвека скoрoсть ветра ниже в 1.5-2 раза). Если метеoстанция нахoдится в гoрoде или в лесу, тo скoрoсть ветра занижена на 2-4 м/с пo сравнению с oткрытым местoм. Скoрoсть ветра над акватoриями крупных рек и oзёр, а также на вершинах хoлмoв на 2-5 м/с выше, чем в oбычных услoвиях.
Атмoсфернoе давление в разных тoчках местнoсти мoжет значительнo oтличаться oт давления на метеoстанции, в зависимoсти oт услoвий рельефа (при пoдъёме на 10 м давление пoнижается примернo на 1 мм рт.ст.).